Retour au catalogue

STARLINK-5661

ActifCommunicationsVLEO
NORAD 55343·PAYLOAD·🇺🇸 United States

Lancé Jan 26, 2023 depuis Cape Canaveral Space Force Station

Loading…

Prochains Passages (prochaines 24 heures)

TLE

FraisSource: CelesTrak SupGP

Époque: Sep 15, 2026, 02:43 UTC

1 55343C 23013N   26258.11368056  .00024538  00000+0  88885-3 0  2581
2 55343  43.0040 313.2725 0001649 271.1365 234.4725 15.27562381    19

Suivez STARLINK-5661 en temps réel avec AllMySat

Download on the App Store